Погода в Шаркане

Россия / Удмуртская Республика     57°18′04″N   53°52′16″E
темп.,
°C
ветер,
м/с
пор.,
м/с
влажн.,
%
обл.,
%
осадки,
мм/ч
давл.,
гПа
погр.,
м
21 апреля, ср
ср2101:00+2юв22530 0.0 103111
04:00+1юв11550 0.0 103210
07:00+3юв25495 0.0 1032163
10:00+8ююв573597 0.0 1031868
13:00+11ююв683098 0.0 10291357
16:00+12ююв6933100 0.0 10281462
19:00+9ююв51141100 0.0 1027451
22:00+7ююв51350100 0.0 1026438
22 апреля, чт
чт2201:00+7ю71354100 0.0 1026896
04:00+4ю61583100 0.4 1026990
07:00+3ю71496100 1.4 1026779
10:00+3ю61296100 3.3 1027697
13:00+4ю61097100 0.2 1028671
16:00+4ю51097100 0.2 1028571
19:00+4ю51096100 0.0 1029531
22:00+4ю41096100 0.0 1028511
23 апреля, пт
пт2301:00+3ю3796100 0.0 1028418
04:00+3ю3798100 0.0 1028412
07:00+2ююв4698100 0.0 1028277
10:00+3ююв3599100 0.1 1029287
13:00+4ююв2396100 0.0 1029313
16:00+5юв2393100 0.0 1028357
19:00+5юв2283100 0.0 102885
22:00+5вюв3381100 0.0 102853
24 апреля, сб
сб2401:00+4всв3588100 0.0 1026139
04:00+2всв3892100 0.0 1025175
07:00+4всв5987100 0.0 1023346
10:00+7в5678100 0.0 1021630
13:00+6в3694100 1.1 1019330
16:00+5в3597100 3.0 1018245
19:00+5в3698100 0.9 1016226
22:00+5в2598100 1.1 1015171
25 апреля, вс
вс2501:00+5в4897100 1.9 1013269
04:00+5юв4998100 2.5 1012343
07:00+5юв4898100 0.4 1011363
10:00+5юв4796100 0.5 1009468
13:00+6ю6991100 1.8 10081013
16:00+6зюз6128727 3.5 1010914
19:00+7зюз5106554 0.3 1011323
22:00+4юз412815 0.3 1013275